Regional Weather Roundup
Issued by NWS Green Bay, WI

Home | Current Version | Previous Version | Text Only | Print | Product List | Glossary On
Versions: 1 2 3 4 5 6 7 8 9 10 11 12 13 14 15 16 17 18 19 20 21 22 23 24 25 26 27 28 29 30 31 32 33 34 35 36 37 38 39 40 41 42 43 44 45 46 47 48 49 50
000
ASUS43 KGRB 192359
RWRGRB

NORTH-CENTRAL AND NORTHEAST WISCONSIN REGIONAL WEATHER ROUNDUP
NATIONAL WEATHER SERVICE GREEN BAY WI
700 PM CDT SAT APR 19 2014

WIZ005-009-010>012-018-019-200100-
NORTH CENTRAL WISCONSIN

CITY           SKY/WX    TMP DP  RH WIND       PRES   REMARKS
IRONWOOD       CLOUDY    48  37  66 S12G21    30.00F
MANITOWISH WTR NOT AVBL
ARBOR VITAE    NOT AVBL
EAGLE RIVER    NOT AVBL
LAND O LAKES   NOT AVBL
RHINELANDER    LGT RAIN  49  33  54 SE5       30.14R
PHILLIPS       NOT AVBL
ANTIGO         NOT AVBL
TOMAHAWK       NOT AVBL
MERRILL        NOT AVBL
$$

WIZ013-073-200100-
NORTHEAST WISCONSIN

CITY           SKY/WX    TMP DP  RH WIND       PRES   REMARKS
IRON MOUNTAIN  CLOUDY    47  27  45 S12G18    30.16R
MARINETTE      MOCLDY    46  32  57 S10       30.21S
$$

WIZ017-030-035>037-045-200100-
CENTRAL WISCONSIN

CITY           SKY/WX    TMP DP  RH WIND       PRES   REMARKS
MEDFORD        NOT AVBL
WAUSAU         CLOUDY    60  36  40 S14       30.09S
MOSINEE        MOCLDY    61  37  41 S13G20    30.12F
MARSHFIELD     CLOUDY    62  39  42 S14       30.09S
WISC RAPIDS    MOCLDY    63  35  35 S9        30.12F
STEVENS POINT  NOT AVBL
WAUPACA        NOT AVBL
SHAWANO        NOT AVBL
CLINTONVILLE   NOT AVBL
$$

WIZ038-039-048-051-200100-
FOX VALLEY

CITY           SKY/WX    TMP DP  RH WIND       PRES   REMARKS
NWS GREEN BAY  MOCLDY    51  37  58 SE13      30.20F
APPLETON       MOCLDY    54  34  47 SE14      30.19F
OSHKOSH        MOCLDY    56  35  45 SE9       30.18F
FOND DU LAC    MOCLDY    56  36  47 SE12      30.19F
$$

WIZ022-050-052-200100-
EAST CENTRAL WISCONSIN

CITY           SKY/WX    TMP DP  RH WIND       PRES   REMARKS
STURGEON BAY   MOCLDY    43  30  61 S13       30.23F
MANITOWOC      NOT AVBL
SHEBOYGAN      MOCLDY    47  36  65 S7        30.23F
$$

LMZ563-521-522-541>543-200100-
LAKESHORE

STATION/POSITION TIME  TEMP    WIND        PRES    VSBY  WAVE
                       AIR SEA DIR/SP/G                  HT/PER
                 (UTC) (F)     (DEG/KT/KT) (MB)    (MI)  (FT/S)
SHEBOYGAN LKSHOR 2300   39     160/  8/  9 1025.0F
KEWAUNEE LKSHORE 2300   41     170/  8/ 10 1024.7F
NORTHPORT PIER   2300   36     140/  7/  9 1024.0F
SISTER BAY LKSHO 2300   45     150/ 10/ 14   N/A
MENOMINEE LKSHOR 2300   37     130/ 12/ 14 1023.6F
$$



USA.gov is the U.S. government's official web portal to all federal, state and local government web resources and services.